BAW617 EGLL-EGPH

Flight info

Callsign BAW617
Flight time 0h 56m
Altitude 32000
Route ULTIB T420 TNT UN57 POL UN601 RIBEL DCT INPIP
Aircraft A320/M-SDE3FGHIRWY/LB1

Departure

Time 2026-04-22 05:04
Airport London Heathrow Airport (EGLL)

Arrival

Time 2026-04-22 06:00
Airport Edinburgh Airport (EGPH)
Time Latitude Longitude Altitude Speed Heading
2026-04-22 04:43 51.46933 -0.45974 60 ft 0 kts 55°
2026-04-22 04:49 51.46933 -0.45975 60 ft 1 kts 56°
2026-04-22 04:49 51.46919 -0.45998 91 ft 3 kts 14°
2026-04-22 04:49 51.46898 -0.46008 89 ft 4 kts 31°
2026-04-22 04:49 51.46882 -0.46034 88 ft 4 kts 94°
2026-04-22 04:50 51.46894 -0.46061 91 ft 3 kts 145°
2026-04-22 04:50 51.46896 -0.46064 91 ft 0 kts 145°
2026-04-22 04:54 51.46896 -0.46063 87 ft 1 kts 145°
2026-04-22 04:55 51.46883 -0.46049 88 ft 4 kts 145°
2026-04-22 04:55 51.46860 -0.46024 87 ft 0 kts 145°
2026-04-22 04:56 51.46859 -0.46023 87 ft 0 kts 145°
2026-04-22 04:56 51.46851 -0.46014 87 ft 3 kts 145°
2026-04-22 04:56 51.46825 -0.45992 87 ft 5 kts 161°
2026-04-22 04:57 51.46780 -0.45989 87 ft 8 kts 187°
2026-04-22 04:57 51.46746 -0.46059 87 ft 10 kts 265°
2026-04-22 04:57 51.46747 -0.46179 91 ft 12 kts 270°
2026-04-22 04:57 51.46746 -0.46329 87 ft 15 kts 269°
2026-04-22 04:58 51.46748 -0.46508 87 ft 17 kts 271°
2026-04-22 04:58 51.46746 -0.46717 89 ft 20 kts 269°
2026-04-22 04:58 51.46746 -0.46868 87 ft 21 kts 269°
2026-04-22 04:58 51.46745 -0.47106 87 ft 22 kts 270°
2026-04-22 04:59 51.46745 -0.47349 87 ft 23 kts 270°
2026-04-22 04:59 51.46744 -0.47618 87 ft 18 kts 269°
2026-04-22 04:59 51.46743 -0.47831 87 ft 21 kts 270°
2026-04-22 04:59 51.46742 -0.48075 87 ft 23 kts 269°
2026-04-22 05:00 51.46742 -0.48302 87 ft 15 kts 270°
2026-04-22 05:00 51.46729 -0.48455 88 ft 12 kts 232°
2026-04-22 05:00 51.46666 -0.48471 87 ft 9 kts 180°
2026-04-22 05:00 51.46619 -0.48470 87 ft 0 kts 179°
2026-04-22 05:01 51.46615 -0.48470 87 ft 2 kts 179°
2026-04-22 05:02 51.46598 -0.48469 88 ft 3 kts 179°
2026-04-22 05:02 51.46569 -0.48469 88 ft 5 kts 179°
2026-04-22 05:02 51.46532 -0.48469 89 ft 6 kts 180°
2026-04-22 05:02 51.46486 -0.48461 88 ft 8 kts 149°
2026-04-22 05:03 51.46476 -0.48381 90 ft 0 kts 86°
2026-04-22 05:03 51.46477 -0.48377 90 ft 2 kts 86°
2026-04-22 05:03 51.46478 -0.48119 87 ft 57 kts 90°
2026-04-22 05:03 51.46483 -0.47125 87 ft 117 kts 90°
2026-04-22 05:04 51.46491 -0.45568 128 ft 157 kts 88°
2026-04-22 05:04 51.46497 -0.43832 709 ft 155 kts 87°
2026-04-22 05:04 51.46537 -0.42109 1405 ft 154 kts 78°
2026-04-22 05:04 51.46989 -0.40494 1779 ft 172 kts 52°
2026-04-22 05:05 51.47816 -0.38938 2060 ft 193 kts 52°
2026-04-22 05:05 51.48742 -0.37177 2399 ft 219 kts 52°
2026-04-22 05:05 51.49761 -0.35227 3047 ft 233 kts 52°
2026-04-22 05:05 51.50817 -0.33205 3915 ft 240 kts 52°
2026-04-22 05:06 51.51889 -0.31120 4835 ft 243 kts 56°
2026-04-22 05:06 51.52607 -0.28647 5720 ft 247 kts 70°
2026-04-22 05:06 51.53172 -0.26019 6627 ft 251 kts 71°
2026-04-22 05:06 51.53737 -0.23332 7442 ft 256 kts 70°
2026-04-22 05:07 51.54379 -0.20638 8225 ft 261 kts 59°
2026-04-22 05:07 51.55701 -0.18651 8962 ft 268 kts 25°
2026-04-22 05:07 51.57548 -0.18212 9793 ft 277 kts 352°
2026-04-22 05:07 51.59333 -0.19421 10552 ft 285 kts 328°
2026-04-22 05:08 51.60783 -0.21771 10827 ft 310 kts 310°
2026-04-22 05:08 51.62328 -0.24321 11099 ft 325 kts 327°
2026-04-22 05:08 51.64272 -0.26242 11691 ft 330 kts 331°
2026-04-22 05:08 51.66259 -0.28142 12407 ft 333 kts 330°
2026-04-22 05:09 51.68263 -0.30061 13121 ft 336 kts 330°
2026-04-22 05:09 51.70285 -0.32003 13826 ft 340 kts 330°
2026-04-22 05:09 51.72350 -0.33990 14509 ft 343 kts 330°
2026-04-22 05:09 51.74404 -0.35972 15124 ft 345 kts 330°
2026-04-22 05:10 51.76472 -0.37970 15746 ft 348 kts 330°
2026-04-22 05:10 51.78561 -0.39993 16285 ft 351 kts 330°
2026-04-22 05:10 51.80663 -0.42024 16894 ft 353 kts 330°
2026-04-22 05:10 51.82818 -0.43960 17510 ft 356 kts 332°
2026-04-22 05:11 51.85028 -0.45813 18123 ft 359 kts 334°
2026-04-22 05:11 51.87270 -0.47626 18709 ft 362 kts 334°
2026-04-22 05:11 51.89540 -0.49446 19270 ft 365 kts 334°
2026-04-22 05:11 51.91822 -0.51288 19845 ft 368 kts 333°
2026-04-22 05:12 51.94111 -0.53161 20447 ft 370 kts 333°
2026-04-22 05:12 51.96405 -0.55056 21059 ft 371 kts 332°
2026-04-22 05:12 51.98709 -0.56974 21670 ft 373 kts 332°
2026-04-22 05:12 52.01018 -0.58909 22245 ft 374 kts 332°
2026-04-22 05:13 52.03335 -0.60851 22828 ft 376 kts 332°
2026-04-22 05:13 52.05667 -0.62803 23395 ft 378 kts 332°
2026-04-22 05:13 52.08009 -0.64764 23949 ft 379 kts 331°
2026-04-22 05:13 52.10360 -0.66734 24391 ft 381 kts 331°
2026-04-22 05:14 52.12724 -0.68716 24828 ft 383 kts 331°
2026-04-22 05:14 52.15097 -0.70710 25267 ft 385 kts 331°
2026-04-22 05:14 52.17483 -0.72720 25679 ft 387 kts 331°
2026-04-22 05:14 52.19874 -0.74738 26079 ft 389 kts 331°
2026-04-22 05:15 52.22286 -0.76774 26477 ft 391 kts 331°
2026-04-22 05:15 52.24713 -0.78824 26885 ft 393 kts 330°
2026-04-22 05:15 52.27146 -0.80879 27277 ft 395 kts 330°
2026-04-22 05:15 52.29593 -0.82947 27658 ft 397 kts 330°
2026-04-22 05:16 52.32050 -0.85026 28048 ft 399 kts 330°
2026-04-22 05:16 52.34518 -0.87116 28418 ft 401 kts 330°
2026-04-22 05:16 52.36997 -0.89221 28805 ft 403 kts 330°
2026-04-22 05:16 52.39492 -0.91346 29166 ft 405 kts 330°
2026-04-22 05:17 52.41992 -0.93481 29536 ft 406 kts 330°
2026-04-22 05:17 52.44538 -0.95657 29880 ft 409 kts 330°
2026-04-22 05:17 52.47033 -0.97790 30245 ft 410 kts 330°
2026-04-22 05:17 52.49603 -0.99987 30567 ft 411 kts 330°
2026-04-22 05:18 52.54662 -1.04319 31349 ft 410 kts 330°
2026-04-22 05:18 52.57192 -1.06486 31718 ft 410 kts 330°
2026-04-22 05:18 52.59718 -1.08652 32100 ft 410 kts 330°
2026-04-22 05:19 52.62251 -1.10831 32264 ft 411 kts 330°
2026-04-22 05:19 52.64779 -1.13012 32281 ft 410 kts 330°
2026-04-22 05:19 52.69829 -1.17379 32270 ft 410 kts 330°
2026-04-22 05:20 52.72357 -1.19569 32389 ft 410 kts 330°
2026-04-22 05:20 52.74882 -1.21753 32381 ft 410 kts 330°
2026-04-22 05:20 52.79945 -1.26139 32376 ft 411 kts 330°
2026-04-22 05:21 52.85008 -1.30552 32383 ft 411 kts 330°
2026-04-22 05:21 52.90074 -1.34977 32375 ft 412 kts 330°
2026-04-22 05:22 52.95138 -1.39420 32385 ft 412 kts 330°
2026-04-22 05:22 53.00201 -1.43868 32385 ft 412 kts 330°
2026-04-22 05:23 53.05281 -1.48326 32397 ft 413 kts 330°
2026-04-22 05:23 53.10362 -1.52800 32397 ft 413 kts 330°
2026-04-22 05:24 53.15444 -1.57289 32413 ft 414 kts 330°
2026-04-22 05:24 53.20527 -1.61799 32411 ft 414 kts 330°
2026-04-22 05:25 53.25610 -1.66327 32416 ft 414 kts 330°
2026-04-22 05:25 53.30736 -1.70891 32420 ft 415 kts 330°
2026-04-22 05:26 53.35828 -1.75430 32423 ft 416 kts 330°
2026-04-22 05:26 53.40936 -1.80015 32420 ft 417 kts 330°
2026-04-22 05:27 53.46050 -1.84621 32424 ft 417 kts 330°
2026-04-22 05:27 53.51170 -1.89235 32419 ft 418 kts 330°
2026-04-22 05:28 53.56290 -1.93853 32425 ft 418 kts 330°
2026-04-22 05:28 53.61412 -1.98491 32424 ft 419 kts 330°
2026-04-22 05:29 53.66546 -2.03162 32435 ft 419 kts 330°
2026-04-22 05:29 53.71676 -2.07852 32429 ft 420 kts 330°
2026-04-22 05:30 53.74243 -2.10169 32292 ft 416 kts 332°
2026-04-22 05:30 53.76892 -2.12044 32438 ft 411 kts 335°
2026-04-22 05:30 53.82166 -2.15630 32439 ft 407 kts 335°
2026-04-22 05:31 53.87416 -2.19217 32442 ft 407 kts 335°
2026-04-22 05:31 53.92670 -2.22811 32447 ft 407 kts 335°
2026-04-22 05:32 53.97920 -2.26429 32449 ft 407 kts 335°
2026-04-22 05:32 54.02317 -2.29462 32450 ft 407 kts 335°
2026-04-22 05:33 54.07577 -2.33084 32455 ft 408 kts 335°
2026-04-22 05:33 54.12840 -2.36706 32460 ft 408 kts 335°
2026-04-22 05:34 54.15455 -2.38519 32305 ft 402 kts 335°
2026-04-22 05:34 54.18020 -2.40297 32046 ft 394 kts 334°
2026-04-22 05:34 54.20546 -2.42055 31801 ft 390 kts 334°
2026-04-22 05:34 54.23044 -2.43799 31544 ft 387 kts 334°
2026-04-22 05:35 54.25528 -2.45533 31299 ft 384 kts 334°
2026-04-22 05:35 54.27994 -2.47259 31054 ft 382 kts 334°
2026-04-22 05:35 54.30443 -2.48972 30819 ft 379 kts 334°
2026-04-22 05:35 54.32881 -2.50676 30568 ft 377 kts 334°
2026-04-22 05:36 54.35307 -2.52373 30287 ft 376 kts 334°
2026-04-22 05:36 54.37722 -2.54066 30006 ft 375 kts 334°
2026-04-22 05:36 54.40134 -2.55759 29715 ft 375 kts 334°
2026-04-22 05:36 54.42543 -2.57458 29427 ft 374 kts 334°
2026-04-22 05:37 54.44952 -2.59160 29155 ft 374 kts 334°
2026-04-22 05:37 54.47359 -2.60863 28878 ft 374 kts 334°
2026-04-22 05:37 54.49769 -2.62567 28602 ft 375 kts 334°
2026-04-22 05:37 54.52177 -2.64271 28335 ft 374 kts 335°
2026-04-22 05:38 54.54587 -2.65975 28070 ft 374 kts 335°
2026-04-22 05:38 54.57026 -2.67701 27801 ft 374 kts 335°
2026-04-22 05:38 54.59432 -2.69412 27532 ft 374 kts 335°
2026-04-22 05:38 54.61834 -2.71124 27274 ft 374 kts 335°
2026-04-22 05:39 54.64244 -2.72846 27015 ft 375 kts 335°
2026-04-22 05:39 54.66656 -2.74565 26762 ft 375 kts 335°
2026-04-22 05:39 54.69069 -2.76281 26509 ft 375 kts 335°
2026-04-22 05:39 54.71484 -2.78004 26263 ft 375 kts 335°
2026-04-22 05:40 54.73890 -2.79728 26009 ft 375 kts 335°
2026-04-22 05:40 54.76303 -2.81456 25756 ft 375 kts 335°
2026-04-22 05:40 54.78707 -2.83178 25511 ft 375 kts 335°
2026-04-22 05:40 54.81125 -2.84910 25266 ft 376 kts 336°
2026-04-22 05:41 54.83546 -2.86648 25017 ft 377 kts 336°
2026-04-22 05:41 54.85973 -2.88394 24779 ft 378 kts 336°
2026-04-22 05:41 54.88408 -2.90151 24549 ft 379 kts 336°
2026-04-22 05:41 54.90843 -2.91910 24308 ft 380 kts 336°
2026-04-22 05:42 54.93289 -2.93676 24064 ft 381 kts 336°
2026-04-22 05:42 54.95742 -2.95453 23785 ft 382 kts 336°
2026-04-22 05:42 54.98194 -2.97233 23508 ft 381 kts 337°
2026-04-22 05:42 55.00637 -2.99006 23229 ft 380 kts 337°
2026-04-22 05:43 55.03073 -3.00778 22944 ft 379 kts 337°
2026-04-22 05:43 55.05507 -3.02550 22534 ft 379 kts 337°
2026-04-22 05:43 55.07934 -3.04317 22003 ft 378 kts 337°
2026-04-22 05:43 55.10360 -3.06083 21480 ft 377 kts 337°
2026-04-22 05:44 55.12782 -3.07848 20954 ft 377 kts 337°
2026-04-22 05:44 55.15200 -3.09617 20432 ft 377 kts 337°
2026-04-22 05:44 55.17636 -3.11402 19668 ft 383 kts 337°
2026-04-22 05:44 55.20110 -3.13218 19071 ft 385 kts 337°
2026-04-22 05:45 55.22570 -3.15026 18631 ft 381 kts 337°
2026-04-22 05:45 55.25008 -3.16817 18088 ft 379 kts 338°
2026-04-22 05:45 55.27426 -3.18594 17703 ft 373 kts 338°
2026-04-22 05:45 55.29867 -3.19841 17560 ft 359 kts 352°
2026-04-22 05:46 55.32307 -3.20054 17430 ft 345 kts
2026-04-22 05:46 55.34693 -3.19690 17207 ft 336 kts
2026-04-22 05:46 55.37015 -3.19325 16874 ft 333 kts
2026-04-22 05:46 55.39317 -3.18963 16509 ft 331 kts
2026-04-22 05:47 55.41605 -3.18602 16138 ft 329 kts
2026-04-22 05:47 55.43880 -3.18247 15782 ft 327 kts
2026-04-22 05:47 55.46142 -3.17897 15424 ft 325 kts
2026-04-22 05:47 55.48389 -3.17546 15072 ft 324 kts
2026-04-22 05:48 55.50632 -3.17196 14712 ft 322 kts
2026-04-22 05:48 55.52852 -3.16850 14359 ft 320 kts
2026-04-22 05:48 55.55064 -3.16508 13966 ft 319 kts
2026-04-22 05:48 55.57268 -3.16165 13595 ft 317 kts
2026-04-22 05:49 55.59455 -3.15820 13249 ft 314 kts
2026-04-22 05:49 55.61627 -3.15473 12898 ft 313 kts
2026-04-22 05:49 55.63784 -3.15125 12554 ft 310 kts
2026-04-22 05:49 55.65899 -3.14786 12225 ft 308 kts
2026-04-22 05:50 55.68012 -3.14482 12072 ft 300 kts
2026-04-22 05:50 55.70034 -3.15119 11888 ft 296 kts 339°
2026-04-22 05:50 55.71725 -3.17183 11443 ft 299 kts 311°
2026-04-22 05:50 55.72750 -3.20296 11019 ft 290 kts 287°
2026-04-22 05:51 55.73289 -3.23687 10605 ft 282 kts 285°
2026-04-22 05:51 55.73809 -3.27013 10172 ft 280 kts 285°
2026-04-22 05:51 55.74332 -3.30352 9702 ft 279 kts 285°
2026-04-22 05:51 55.74850 -3.33636 9252 ft 274 kts 285°
2026-04-22 05:52 55.75367 -3.36900 8808 ft 277 kts 285°
2026-04-22 05:52 55.75884 -3.40188 8364 ft 275 kts 285°
2026-04-22 05:52 55.76388 -3.43420 7934 ft 269 kts 285°
2026-04-22 05:52 55.76886 -3.46608 7503 ft 266 kts 285°
2026-04-22 05:53 55.77383 -3.49782 7089 ft 269 kts 285°
2026-04-22 05:53 55.77893 -3.53062 6643 ft 273 kts 285°
2026-04-22 05:53 55.78389 -3.56275 6191 ft 267 kts 285°
2026-04-22 05:53 55.78866 -3.59376 5757 ft 261 kts 285°
2026-04-22 05:54 55.79347 -3.62504 5294 ft 257 kts 285°
2026-04-22 05:54 55.79821 -3.65558 4761 ft 256 kts 287°
2026-04-22 05:54 55.80687 -3.68247 4223 ft 250 kts 322°
2026-04-22 05:54 55.82211 -3.69418 3722 ft 238 kts
2026-04-22 05:55 55.83739 -3.68670 3268 ft 224 kts 37°
2026-04-22 05:55 55.84822 -3.66816 3007 ft 207 kts 56°
2026-04-22 05:55 55.85596 -3.64773 3001 ft 192 kts 60°
2026-04-22 05:55 55.86275 -3.62821 3007 ft 181 kts 61°
2026-04-22 05:56 55.86915 -3.60953 3026 ft 170 kts 61°
2026-04-22 05:56 55.87515 -3.59211 2881 ft 162 kts 61°
2026-04-22 05:56 55.88091 -3.57525 2654 ft 156 kts 60°
2026-04-22 05:56 55.88638 -3.55926 2461 ft 145 kts 61°
2026-04-22 05:57 55.89142 -3.54453 2282 ft 134 kts 60°
2026-04-22 05:57 55.89621 -3.53052 2096 ft 131 kts 61°
2026-04-22 05:57 55.90092 -3.51670 1904 ft 130 kts 60°
2026-04-22 05:57 55.90559 -3.50300 1729 ft 129 kts 60°
2026-04-22 05:58 55.91028 -3.48926 1542 ft 129 kts 60°
2026-04-22 05:58 55.91494 -3.47559 1355 ft 129 kts 60°
2026-04-22 05:58 55.91958 -3.46196 1144 ft 129 kts 60°
2026-04-22 05:58 55.92426 -3.44831 940 ft 129 kts 60°
2026-04-22 05:59 55.92891 -3.43469 808 ft 128 kts 60°
2026-04-22 05:59 55.93351 -3.42108 644 ft 128 kts 61°
2026-04-22 05:59 55.93812 -3.40748 412 ft 127 kts 61°
2026-04-22 05:59 55.94273 -3.39397 227 ft 127 kts 60°
2026-04-22 06:00 55.94727 -3.38055 117 ft 121 kts 59°
2026-04-22 06:00 55.95083 -3.37005 113 ft 75 kts 58°
2026-04-22 06:00 55.95223 -3.36593 113 ft 20 kts 58°
2026-04-22 06:00 55.95250 -3.36420 111 ft 13 kts 126°
2026-04-22 06:01 55.95196 -3.36356 112 ft 9 kts 148°
2026-04-22 06:01 55.95149 -3.36308 112 ft 8 kts 160°
2026-04-22 06:01 55.95104 -3.36370 112 ft 9 kts 237°
2026-04-22 06:01 55.95055 -3.36391 112 ft 6 kts 160°
2026-04-22 06:02 55.95011 -3.36417 111 ft 8 kts 232°
2026-04-22 06:02 55.94987 -3.36482 111 ft 7 kts 238°
2026-04-22 06:02 55.94968 -3.36539 112 ft 4 kts 237°
2026-04-22 06:02 55.94942 -3.36536 112 ft 5 kts 154°
2026-04-22 06:03 55.94929 -3.36522 112 ft 3 kts 150°
2026-04-22 06:03 55.94914 -3.36506 111 ft 1 kts 148°
2026-04-22 06:03 55.94907 -3.36498 111 ft 1 kts 148°
2026-04-22 06:03 55.94906 -3.36496 111 ft 0 kts 147°